owner,sensor,date,latitude,longitude,sea_surface_height_above_sea_level,qcFlag 
TCOON,ioos:station:TCOON:068:1,2013-12-09T14:54:00Z,27.2970,-97.4049,4.259,1111122 
TCOON,ioos:station:TCOON:068:1,2013-12-09T15:24:00Z,27.2970,-97.4049,4.263,1111122 
TCOON,ioos:station:TCOON:068:1,2013-12-09T16:48:00Z,27.2970,-97.4049,4.26,1111122 
TCOON,ioos:station:TCOON:068:1,2013-12-09T17:24:00Z,27.2970,-97.4049,4.266,1111122 
TCOON,ioos:station:TCOON:068:1,2013-12-09T18:24:00Z,27.2970,-97.4049,4.277,1111122 
TCOON,ioos:station:TCOON:068:1,2013-12-09T19:24:00Z,27.2970,-97.4049,4.278,1111122 
TCOON,ioos:station:TCOON:068:1,2013-12-09T20:24:00Z,27.2970,-97.4049,4.278,1111122 
TCOON,ioos:station:TCOON:068:1,2013-12-09T21:24:00Z,27.2970,-97.4049,4.274,1111122 
TCOON,ioos:station:TCOON:068:1,2013-12-09T22:24:00Z,27.2970,-97.4049,4.273,1111122 
TCOON,ioos:station:TCOON:068:1,2013-12-09T23:24:00Z,27.2970,-97.4049,4.271,1111122 
TCOON,ioos:station:TCOON:068:1,2013-12-10T00:24:00Z,27.2970,-97.4049,4.275,1111122 
TCOON,ioos:station:TCOON:068:1,2013-12-10T01:24:00Z,27.2970,-97.4049,4.273,1111122 
TCOON,ioos:station:TCOON:068:1,2013-12-10T02:24:00Z,27.2970,-97.4049,4.278,1111122 
TCOON,ioos:station:TCOON:068:1,2013-12-10T03:24:00Z,27.2970,-97.4049,4.287,1111122 
TCOON,ioos:station:TCOON:068:1,2013-12-10T04:24:00Z,27.2970,-97.4049,4.291,1111122 
TCOON,ioos:station:TCOON:068:1,2013-12-10T09:24:00Z,27.2970,-97.4049,4.311,1111122 
TCOON,ioos:station:TCOON:068:1,2013-12-10T10:54:00Z,27.2970,-97.4049,4.319,1111122 
TCOON,ioos:station:TCOON:068:1,2013-12-10T12:24:00Z,27.2970,-97.4049,4.327,1111122 
TCOON,ioos:station:TCOON:068:1,2013-12-10T20:24:00Z,27.2970,-97.4049,4.32,1111122 
TCOON,ioos:station:TCOON:068:1,2013-12-11T01:54:00Z,27.2970,-97.4049,4.303,1111122 
TCOON,ioos:station:TCOON:068:1,2013-12-11T17:54:00Z,27.2970,-97.4049,4.284,1111122 
TCOON,ioos:station:TCOON:068:1,2013-12-11T19:24:00Z,27.2970,-97.4049,4.287,1111122 
TCOON,ioos:station:TCOON:068:1,2013-12-11T21:24:00Z,27.2970,-97.4049,4.269,1111122 
TCOON,ioos:station:TCOON:068:1,2013-12-12T11:24:00Z,27.2970,-97.4049,4.255,1111122 
TCOON,ioos:station:TCOON:068:1,2013-12-12T15:24:00Z,27.2970,-97.4049,4.273,1111122 
TCOON,ioos:station:TCOON:068:1,2013-12-12T16:24:00Z,27.2970,-97.4049,4.275,1111122 
TCOON,ioos:station:TCOON:068:1,2013-12-12T17:24:00Z,27.2970,-97.4049,4.278,1111122 
TCOON,ioos:station:TCOON:068:1,2013-12-12T19:24:00Z,27.2970,-97.4049,4.276,1111122 
TCOON,ioos:station:TCOON:068:1,2013-12-12T21:24:00Z,27.2970,-97.4049,4.276,1111122 
TCOON,ioos:station:TCOON:068:1,2013-12-12T22:24:00Z,27.2970,-97.4049,4.271,1111122 
TCOON,ioos:station:TCOON:068:1,2013-12-12T22:54:00Z,27.2970,-97.4049,4.27,1111122 
TCOON,ioos:station:TCOON:068:1,2013-12-12T23:54:00Z,27.2970,-97.4049,4.267,1111122 
TCOON,ioos:station:TCOON:068:1,2013-12-13T00:54:00Z,27.2970,-97.4049,4.27,1111122 
TCOON,ioos:station:TCOON:068:1,2013-12-13T01:54:00Z,27.2970,-97.4049,4.263,1111122 
TCOON,ioos:station:TCOON:068:1,2013-12-13T02:54:00Z,27.2970,-97.4049,4.264,1111122 
TCOON,ioos:station:TCOON:068:1,2013-12-13T03:54:00Z,27.2970,-97.4049,4.269,1111122 
TCOON,ioos:station:TCOON:068:1,2013-12-13T04:54:00Z,27.2970,-97.4049,4.269,1111122 
TCOON,ioos:station:TCOON:068:1,2013-12-13T06:18:00Z,27.2970,-97.4049,4.275,1111122 
TCOON,ioos:station:TCOON:068:1,2013-12-13T06:48:00Z,27.2970,-97.4049,4.269,1111122 
TCOON,ioos:station:TCOON:068:1,2013-12-13T07:18:00Z,27.2970,-97.4049,4.268,1111122 
TCOON,ioos:station:TCOON:068:1,2013-12-13T07:48:00Z,27.2970,-97.4049,4.271,1111122 
TCOON,ioos:station:TCOON:068:1,2013-12-13T08:18:00Z,27.2970,-97.4049,4.27,1111122 
TCOON,ioos:station:TCOON:068:1,2013-12-13T08:48:00Z,27.2970,-97.4049,4.271,1111122 
TCOON,ioos:station:TCOON:068:1,2013-12-13T09:18:00Z,27.2970,-97.4049,4.265,1111122 
TCOON,ioos:station:TCOON:068:1,2013-12-13T09:48:00Z,27.2970,-97.4049,4.264,1111122 
TCOON,ioos:station:TCOON:068:1,2013-12-13T10:18:00Z,27.2970,-97.4049,4.265,1111122 
TCOON,ioos:station:TCOON:068:1,2013-12-13T10:48:00Z,27.2970,-97.4049,4.262,1111122 
TCOON,ioos:station:TCOON:068:1,2013-12-13T11:18:00Z,27.2970,-97.4049,4.265,1111122 
TCOON,ioos:station:TCOON:068:1,2013-12-13T11:48:00Z,27.2970,-97.4049,4.264,1111122 
TCOON,ioos:station:TCOON:068:1,2013-12-13T12:18:00Z,27.2970,-97.4049,4.269,1111122 
TCOON,ioos:station:TCOON:068:1,2013-12-13T12:48:00Z,27.2970,-97.4049,4.267,1111122 
TCOON,ioos:station:TCOON:068:1,2013-12-13T13:24:00Z,27.2970,-97.4049,4.271,1111122 
TCOON,ioos:station:TCOON:068:1,2013-12-13T13:48:00Z,27.2970,-97.4049,4.27,1111122 
TCOON,ioos:station:TCOON:068:1,2013-12-13T14:24:00Z,27.2970,-97.4049,4.27,1111122 
TCOON,ioos:station:TCOON:068:1,2013-12-13T14:48:00Z,27.2970,-97.4049,4.265,1111122 
TCOON,ioos:station:TCOON:068:1,2013-12-13T15:18:00Z,27.2970,-97.4049,4.26,1111122 
TCOON,ioos:station:TCOON:068:1,2013-12-13T16:48:00Z,27.2970,-97.4049,4.254,1111122 
TCOON,ioos:station:TCOON:068:1,2013-12-13T17:06:00Z,27.2970,-97.4049,4.255,1111122 
TCOON,ioos:station:TCOON:068:1,2013-12-13T17:36:00Z,27.2970,-97.4049,4.255,1111122 
TCOON,ioos:station:TCOON:068:1,2013-12-13T18:06:00Z,27.2970,-97.4049,4.263,1111122 
TCOON,ioos:station:TCOON:068:1,2013-12-13T18:36:00Z,27.2970,-97.4049,4.265,1111122 
TCOON,ioos:station:TCOON:068:1,2013-12-13T19:06:00Z,27.2970,-97.4049,4.267,1111122 
TCOON,ioos:station:TCOON:068:1,2013-12-13T19:36:00Z,27.2970,-97.4049,4.271,1111122 
TCOON,ioos:station:TCOON:068:1,2013-12-13T20:06:00Z,27.2970,-97.4049,4.27,1111122 
TCOON,ioos:station:TCOON:068:1,2013-12-13T20:36:00Z,27.2970,-97.4049,4.268,1111122 
TCOON,ioos:station:TCOON:068:1,2013-12-13T21:06:00Z,27.2970,-97.4049,4.265,1111122 
TCOON,ioos:station:TCOON:068:1,2013-12-13T21:36:00Z,27.2970,-97.4049,4.27,1111122 
TCOON,ioos:station:TCOON:068:1,2013-12-13T22:06:00Z,27.2970,-97.4049,4.268,1111122 
TCOON,ioos:station:TCOON:068:1,2013-12-13T22:36:00Z,27.2970,-97.4049,4.263,1111122 
TCOON,ioos:station:TCOON:068:1,2013-12-13T23:06:00Z,27.2970,-97.4049,4.262,1111122 
TCOON,ioos:station:TCOON:068:1,2013-12-13T23:36:00Z,27.2970,-97.4049,4.253,1111122 
TCOON,ioos:station:TCOON:068:1,2013-12-14T00:06:00Z,27.2970,-97.4049,4.253,1111122 
TCOON,ioos:station:TCOON:068:1,2013-12-14T00:36:00Z,27.2970,-97.4049,4.252,1111122 
TCOON,ioos:station:TCOON:068:1,2013-12-14T01:06:00Z,27.2970,-97.4049,4.254,1111122 
TCOON,ioos:station:TCOON:068:1,2013-12-14T01:36:00Z,27.2970,-97.4049,4.255,1111122 
TCOON,ioos:station:TCOON:068:1,2013-12-14T02:06:00Z,27.2970,-97.4049,4.255,1111122 
TCOON,ioos:station:TCOON:068:1,2013-12-14T02:36:00Z,27.2970,-97.4049,4.255,1111122 
TCOON,ioos:station:TCOON:068:1,2013-12-14T03:06:00Z,27.2970,-97.4049,4.258,1111122 
TCOON,ioos:station:TCOON:068:1,2013-12-14T03:36:00Z,27.2970,-97.4049,4.258,1111122 
TCOON,ioos:station:TCOON:068:1,2013-12-14T04:06:00Z,27.2970,-97.4049,4.258,1111122 
TCOON,ioos:station:TCOON:068:1,2013-12-14T04:36:00Z,27.2970,-97.4049,4.256,1111122 
TCOON,ioos:station:TCOON:068:1,2013-12-14T05:06:00Z,27.2970,-97.4049,4.258,1111122 
TCOON,ioos:station:TCOON:068:1,2013-12-14T06:06:00Z,27.2970,-97.4049,4.261,1111122 
TCOON,ioos:station:TCOON:068:1,2013-12-14T06:36:00Z,27.2970,-97.4049,4.259,1111122 
TCOON,ioos:station:TCOON:068:1,2013-12-14T07:06:00Z,27.2970,-97.4049,4.257,1111122 
TCOON,ioos:station:TCOON:068:1,2013-12-14T07:36:00Z,27.2970,-97.4049,4.257,1111122 
TCOON,ioos:station:TCOON:068:1,2013-12-14T08:06:00Z,27.2970,-97.4049,4.26,1111122 
TCOON,ioos:station:TCOON:068:1,2013-12-14T08:36:00Z,27.2970,-97.4049,4.259,1111122 
TCOON,ioos:station:TCOON:068:1,2013-12-14T09:06:00Z,27.2970,-97.4049,4.269,1111122 
TCOON,ioos:station:TCOON:068:1,2013-12-14T09:36:00Z,27.2970,-97.4049,4.257,1111122 
TCOON,ioos:station:TCOON:068:1,2013-12-14T10:06:00Z,27.2970,-97.4049,4.258,1111122 
TCOON,ioos:station:TCOON:068:1,2013-12-14T10:36:00Z,27.2970,-97.4049,4.249,1111122 
TCOON,ioos:station:TCOON:068:1,2013-12-14T11:06:00Z,27.2970,-97.4049,4.264,1111122 
TCOON,ioos:station:TCOON:068:1,2013-12-14T11:36:00Z,27.2970,-97.4049,4.267,1111122 
TCOON,ioos:station:TCOON:068:1,2013-12-14T12:06:00Z,27.2970,-97.4049,4.274,1111122 
TCOON,ioos:station:TCOON:068:1,2013-12-14T12:36:00Z,27.2970,-97.4049,4.272,1111122 
TCOON,ioos:station:TCOON:068:1,2013-12-14T13:06:00Z,27.2970,-97.4049,4.277,1111122 
TCOON,ioos:station:TCOON:068:1,2013-12-14T13:36:00Z,27.2970,-97.4049,4.275,1111122 
TCOON,ioos:station:TCOON:068:1,2013-12-14T14:06:00Z,27.2970,-97.4049,4.276,1111122 
TCOON,ioos:station:TCOON:068:1,2013-12-14T14:36:00Z,27.2970,-97.4049,4.281,1111122 
TCOON,ioos:station:TCOON:068:1,2013-12-14T15:06:00Z,27.2970,-97.4049,4.283,1111122 
TCOON,ioos:station:TCOON:068:1,2013-12-14T15:36:00Z,27.2970,-97.4049,4.284,1111122 
TCOON,ioos:station:TCOON:068:1,2013-12-14T16:06:00Z,27.2970,-97.4049,4.287,1111122 
TCOON,ioos:station:TCOON:068:1,2013-12-14T16:36:00Z,27.2970,-97.4049,4.283,1111122 
TCOON,ioos:station:TCOON:068:1,2013-12-14T17:06:00Z,27.2970,-97.4049,4.283,1111122 
TCOON,ioos:station:TCOON:068:1,2013-12-14T17:36:00Z,27.2970,-97.4049,4.288,1111122 
TCOON,ioos:station:TCOON:068:1,2013-12-14T18:06:00Z,27.2970,-97.4049,4.296,1111122 
TCOON,ioos:station:TCOON:068:1,2013-12-14T18:36:00Z,27.2970,-97.4049,4.286,1111122 
TCOON,ioos:station:TCOON:068:1,2013-12-14T19:06:00Z,27.2970,-97.4049,4.289,1111122 
TCOON,ioos:station:TCOON:068:1,2013-12-14T19:36:00Z,27.2970,-97.4049,4.293,1111122 
TCOON,ioos:station:TCOON:068:1,2013-12-14T20:12:00Z,27.2970,-97.4049,4.292,1111122 
TCOON,ioos:station:TCOON:068:1,2013-12-14T20:36:00Z,27.2970,-97.4049,4.296,1111122 
TCOON,ioos:station:TCOON:068:1,2013-12-14T21:12:00Z,27.2970,-97.4049,4.294,1111122 
TCOON,ioos:station:TCOON:068:1,2013-12-14T21:42:00Z,27.2970,-97.4049,4.292,1111122 
TCOON,ioos:station:TCOON:068:1,2013-12-14T22:06:00Z,27.2970,-97.4049,4.302,1111122 
TCOON,ioos:station:TCOON:068:1,2013-12-14T22:42:00Z,27.2970,-97.4049,4.282,1111122 
TCOON,ioos:station:TCOON:068:1,2013-12-14T23:12:00Z,27.2970,-97.4049,4.286,1111122 
TCOON,ioos:station:TCOON:068:1,2013-12-14T23:42:00Z,27.2970,-97.4049,4.273,1111122 
TCOON,ioos:station:TCOON:068:1,2013-12-15T00:12:00Z,27.2970,-97.4049,4.271,1111122 
TCOON,ioos:station:TCOON:068:1,2013-12-15T00:42:00Z,27.2970,-97.4049,4.262,1111122 
TCOON,ioos:station:TCOON:068:1,2013-12-15T01:12:00Z,27.2970,-97.4049,4.256,1111122 
TCOON,ioos:station:TCOON:068:1,2013-12-15T01:42:00Z,27.2970,-97.4049,4.25,1111122 
TCOON,ioos:station:TCOON:068:1,2013-12-15T02:12:00Z,27.2970,-97.4049,4.243,1111122 
TCOON,ioos:station:TCOON:068:1,2013-12-15T02:42:00Z,27.2970,-97.4049,4.233,1111122 
TCOON,ioos:station:TCOON:068:1,2013-12-15T03:06:00Z,27.2970,-97.4049,4.233,1111122 
TCOON,ioos:station:TCOON:068:1,2013-12-15T03:42:00Z,27.2970,-97.4049,4.245,1111122 
TCOON,ioos:station:TCOON:068:1,2013-12-15T04:12:00Z,27.2970,-97.4049,4.262,1111122 
TCOON,ioos:station:TCOON:068:1,2013-12-15T04:42:00Z,27.2970,-97.4049,4.266,1111122 
TCOON,ioos:station:TCOON:068:1,2013-12-15T05:12:00Z,27.2970,-97.4049,4.262,1111122 
TCOON,ioos:station:TCOON:068:1,2013-12-15T05:42:00Z,27.2970,-97.4049,4.267,1111122 
TCOON,ioos:station:TCOON:068:1,2013-12-15T06:12:00Z,27.2970,-97.4049,4.267,1111122 
TCOON,ioos:station:TCOON:068:1,2013-12-15T06:42:00Z,27.2970,-97.4049,4.269,1111122 
TCOON,ioos:station:TCOON:068:1,2013-12-15T07:12:00Z,27.2970,-97.4049,4.263,1111122 
TCOON,ioos:station:TCOON:068:1,2013-12-15T07:42:00Z,27.2970,-97.4049,4.255,1111122 
TCOON,ioos:station:TCOON:068:1,2013-12-15T08:12:00Z,27.2970,-97.4049,4.254,1111122 
TCOON,ioos:station:TCOON:068:1,2013-12-15T08:42:00Z,27.2970,-97.4049,4.259,1111122 
TCOON,ioos:station:TCOON:068:1,2013-12-15T09:12:00Z,27.2970,-97.4049,4.268,1111122 
TCOON,ioos:station:TCOON:068:1,2013-12-15T09:42:00Z,27.2970,-97.4049,4.282,1111122 
TCOON,ioos:station:TCOON:068:1,2013-12-15T10:12:00Z,27.2970,-97.4049,4.288,1111122 
TCOON,ioos:station:TCOON:068:1,2013-12-15T10:42:00Z,27.2970,-97.4049,4.285,1111122 
TCOON,ioos:station:TCOON:068:1,2013-12-15T11:12:00Z,27.2970,-97.4049,4.279,1111122 
TCOON,ioos:station:TCOON:068:1,2013-12-15T11:42:00Z,27.2970,-97.4049,4.276,1111122 
TCOON,ioos:station:TCOON:068:1,2013-12-15T12:12:00Z,27.2970,-97.4049,4.273,1111122 
TCOON,ioos:station:TCOON:068:1,2013-12-15T12:42:00Z,27.2970,-97.4049,4.27,1111122 
TCOON,ioos:station:TCOON:068:1,2013-12-15T13:12:00Z,27.2970,-97.4049,4.271,1111122 
TCOON,ioos:station:TCOON:068:1,2013-12-15T13:42:00Z,27.2970,-97.4049,4.269,1111122 
TCOON,ioos:station:TCOON:068:1,2013-12-15T14:12:00Z,27.2970,-97.4049,4.271,1111122 
TCOON,ioos:station:TCOON:068:1,2013-12-15T14:42:00Z,27.2970,-97.4049,4.272,1111122 
TCOON,ioos:station:TCOON:068:1,2013-12-15T15:12:00Z,27.2970,-97.4049,4.272,1111122 
TCOON,ioos:station:TCOON:068:1,2013-12-15T15:48:00Z,27.2970,-97.4049,4.27,1111122 
TCOON,ioos:station:TCOON:068:1,2013-12-15T16:12:00Z,27.2970,-97.4049,4.268,1111122 
TCOON,ioos:station:TCOON:068:1,2013-12-15T16:42:00Z,27.2970,-97.4049,4.269,1111122 
TCOON,ioos:station:TCOON:068:1,2013-12-15T17:12:00Z,27.2970,-97.4049,4.263,1111122 
TCOON,ioos:station:TCOON:068:1,2013-12-15T17:42:00Z,27.2970,-97.4049,4.26,1111122 
TCOON,ioos:station:TCOON:068:1,2013-12-15T18:12:00Z,27.2970,-97.4049,4.259,1111122 
TCOON,ioos:station:TCOON:068:1,2013-12-15T18:42:00Z,27.2970,-97.4049,4.258,1111122 
TCOON,ioos:station:TCOON:068:1,2013-12-15T19:12:00Z,27.2970,-97.4049,4.262,1111122 
TCOON,ioos:station:TCOON:068:1,2013-12-15T19:42:00Z,27.2970,-97.4049,4.262,1111122 
TCOON,ioos:station:TCOON:068:1,2013-12-15T20:12:00Z,27.2970,-97.4049,4.257,1111122 
TCOON,ioos:station:TCOON:068:1,2013-12-15T20:42:00Z,27.2970,-97.4049,4.252,1111122 
TCOON,ioos:station:TCOON:068:1,2013-12-15T21:12:00Z,27.2970,-97.4049,4.252,1111122 
TCOON,ioos:station:TCOON:068:1,2013-12-15T21:42:00Z,27.2970,-97.4049,4.251,1111122 
TCOON,ioos:station:TCOON:068:1,2013-12-15T22:12:00Z,27.2970,-97.4049,4.255,1111122 
TCOON,ioos:station:TCOON:068:1,2013-12-15T22:48:00Z,27.2970,-97.4049,4.255,1111122 
TCOON,ioos:station:TCOON:068:1,2013-12-15T23:12:00Z,27.2970,-97.4049,4.251,1111122 
TCOON,ioos:station:TCOON:068:1,2013-12-15T23:48:00Z,27.2970,-97.4049,4.246,1111122 
TCOON,ioos:station:TCOON:068:1,2013-12-16T00:18:00Z,27.2970,-97.4049,4.243,1111122 
TCOON,ioos:station:TCOON:068:1,2013-12-16T00:48:00Z,27.2970,-97.4049,4.245,1111122 
TCOON,ioos:station:TCOON:068:1,2013-12-16T01:18:00Z,27.2970,-97.4049,4.249,1111122 
TCOON,ioos:station:TCOON:068:1,2013-12-16T01:48:00Z,27.2970,-97.4049,4.253,1111122 
TCOON,ioos:station:TCOON:068:1,2013-12-16T02:18:00Z,27.2970,-97.4049,4.249,1111122 
TCOON,ioos:station:TCOON:068:1,2013-12-16T02:48:00Z,27.2970,-97.4049,4.247,1111122 
TCOON,ioos:station:TCOON:068:1,2013-12-16T03:18:00Z,27.2970,-97.4049,4.247,1111122 
TCOON,ioos:station:TCOON:068:1,2013-12-16T03:48:00Z,27.2970,-97.4049,4.246,1111122 
TCOON,ioos:station:TCOON:068:1,2013-12-16T04:18:00Z,27.2970,-97.4049,4.248,1111122 
TCOON,ioos:station:TCOON:068:1,2013-12-16T04:48:00Z,27.2970,-97.4049,4.242,1111122 
TCOON,ioos:station:TCOON:068:1,2013-12-16T05:18:00Z,27.2970,-97.4049,4.242,1111122 
TCOON,ioos:station:TCOON:068:1,2013-12-16T05:48:00Z,27.2970,-97.4049,4.244,1111122 
TCOON,ioos:station:TCOON:068:1,2013-12-16T06:18:00Z,27.2970,-97.4049,4.242,1111122 
TCOON,ioos:station:TCOON:068:1,2013-12-16T06:48:00Z,27.2970,-97.4049,4.241,1111122 
TCOON,ioos:station:TCOON:068:1,2013-12-16T07:18:00Z,27.2970,-97.4049,4.238,1111122 
TCOON,ioos:station:TCOON:068:1,2013-12-16T07:48:00Z,27.2970,-97.4049,4.232,1111122 
TCOON,ioos:station:TCOON:068:1,2013-12-16T08:18:00Z,27.2970,-97.4049,4.229,1111122 
TCOON,ioos:station:TCOON:068:1,2013-12-16T08:48:00Z,27.2970,-97.4049,4.227,1111122 
TCOON,ioos:station:TCOON:068:1,2013-12-16T09:18:00Z,27.2970,-97.4049,4.241,1111122 
TCOON,ioos:station:TCOON:068:1,2013-12-16T09:48:00Z,27.2970,-97.4049,4.239,1111122 
TCOON,ioos:station:TCOON:068:1,2013-12-16T10:18:00Z,27.2970,-97.4049,4.238,1111122 
TCOON,ioos:station:TCOON:068:1,2013-12-16T10:48:00Z,27.2970,-97.4049,4.237,1111122 
TCOON,ioos:station:TCOON:068:1,2013-12-16T11:18:00Z,27.2970,-97.4049,4.234,1111122 
TCOON,ioos:station:TCOON:068:1,2013-12-16T11:48:00Z,27.2970,-97.4049,4.234,1111122 
TCOON,ioos:station:TCOON:068:1,2013-12-16T12:18:00Z,27.2970,-97.4049,4.23,1111122 
TCOON,ioos:station:TCOON:068:1,2013-12-16T12:48:00Z,27.2970,-97.4049,4.227,1111122 
TCOON,ioos:station:TCOON:068:1,2013-12-16T13:18:00Z,27.2970,-97.4049,4.225,1111122 
TCOON,ioos:station:TCOON:068:1,2013-12-16T13:48:00Z,27.2970,-97.4049,4.218,1111122 
TCOON,ioos:station:TCOON:068:1,2013-12-16T14:18:00Z,27.2970,-97.4049,4.213,1111122 
TCOON,ioos:station:TCOON:068:1,2013-12-16T14:48:00Z,27.2970,-97.4049,4.212,1111122 
TCOON,ioos:station:TCOON:068:1,2013-12-16T15:18:00Z,27.2970,-97.4049,4.211,1111122 
TCOON,ioos:station:TCOON:068:1,2013-12-16T15:48:00Z,27.2970,-97.4049,4.21,1111122 
TCOON,ioos:station:TCOON:068:1,2013-12-16T16:18:00Z,27.2970,-97.4049,4.211,1111122 
TCOON,ioos:station:TCOON:068:1,2013-12-16T16:48:00Z,27.2970,-97.4049,4.207,1111122 
TCOON,ioos:station:TCOON:068:1,2013-12-16T17:18:00Z,27.2970,-97.4049,4.207,1111122 
TCOON,ioos:station:TCOON:068:1,2013-12-16T17:48:00Z,27.2970,-97.4049,4.209,1111122 
TCOON,ioos:station:TCOON:068:1,2013-12-16T18:18:00Z,27.2970,-97.4049,4.208,1111122 
TCOON,ioos:station:TCOON:068:1,2013-12-16T18:48:00Z,27.2970,-97.4049,4.205,1111122 
TCOON,ioos:station:TCOON:068:1,2013-12-16T19:18:00Z,27.2970,-97.4049,4.205,1111122 
TCOON,ioos:station:TCOON:068:1,2013-12-16T19:48:00Z,27.2970,-97.4049,4.206,1111122 
TCOON,ioos:station:TCOON:068:1,2013-12-16T20:18:00Z,27.2970,-97.4049,4.204,1111122 
TCOON,ioos:station:TCOON:068:1,2013-12-16T20:48:00Z,27.2970,-97.4049,4.199,1111122 
TCOON,ioos:station:TCOON:068:1,2013-12-16T21:18:00Z,27.2970,-97.4049,4.196,1111122 
TCOON,ioos:station:TCOON:068:1,2013-12-16T21:48:00Z,27.2970,-97.4049,4.191,1111122 
TCOON,ioos:station:TCOON:068:1,2013-12-16T22:18:00Z,27.2970,-97.4049,4.187,1111122 
TCOON,ioos:station:TCOON:068:1,2013-12-16T22:48:00Z,27.2970,-97.4049,4.184,1111122 
TCOON,ioos:station:TCOON:068:1,2013-12-16T23:18:00Z,27.2970,-97.4049,4.181,1111122 
TCOON,ioos:station:TCOON:068:1,2013-12-16T23:48:00Z,27.2970,-97.4049,4.175,1111122 
TCOON,ioos:station:TCOON:068:1,2013-12-17T00:18:00Z,27.2970,-97.4049,4.174,1111122 
TCOON,ioos:station:TCOON:068:1,2013-12-17T00:48:00Z,27.2970,-97.4049,4.177,1111122 
TCOON,ioos:station:TCOON:068:1,2013-12-17T01:18:00Z,27.2970,-97.4049,4.182,1111122 
TCOON,ioos:station:TCOON:068:1,2013-12-17T01:48:00Z,27.2970,-97.4049,4.184,1111122 
TCOON,ioos:station:TCOON:068:1,2013-12-17T02:18:00Z,27.2970,-97.4049,4.186,1111122 
TCOON,ioos:station:TCOON:068:1,2013-12-17T02:48:00Z,27.2970,-97.4049,4.185,1111122 
TCOON,ioos:station:TCOON:068:1,2013-12-17T03:18:00Z,27.2970,-97.4049,4.185,1111122 
TCOON,ioos:station:TCOON:068:1,2013-12-17T03:48:00Z,27.2970,-97.4049,4.185,1111122 
TCOON,ioos:station:TCOON:068:1,2013-12-17T04:18:00Z,27.2970,-97.4049,4.183,1111122 
TCOON,ioos:station:TCOON:068:1,2013-12-17T04:48:00Z,27.2970,-97.4049,4.181,1111122 
TCOON,ioos:station:TCOON:068:1,2013-12-17T05:18:00Z,27.2970,-97.4049,4.178,1111122 
TCOON,ioos:station:TCOON:068:1,2013-12-17T05:48:00Z,27.2970,-97.4049,4.177,1111122 
TCOON,ioos:station:TCOON:068:1,2013-12-17T06:18:00Z,27.2970,-97.4049,4.173,1111122 
TCOON,ioos:station:TCOON:068:1,2013-12-17T06:48:00Z,27.2970,-97.4049,4.173,1111122 
TCOON,ioos:station:TCOON:068:1,2013-12-17T07:18:00Z,27.2970,-97.4049,4.172,1111122 
TCOON,ioos:station:TCOON:068:1,2013-12-17T07:48:00Z,27.2970,-97.4049,4.172,1111122 
TCOON,ioos:station:TCOON:068:1,2013-12-17T08:18:00Z,27.2970,-97.4049,4.171,1111122 
TCOON,ioos:station:TCOON:068:1,2013-12-17T08:48:00Z,27.2970,-97.4049,4.17,1111122 
TCOON,ioos:station:TCOON:068:1,2013-12-17T09:18:00Z,27.2970,-97.4049,4.169,1111122 
TCOON,ioos:station:TCOON:068:1,2013-12-17T09:48:00Z,27.2970,-97.4049,4.17,1111122 
TCOON,ioos:station:TCOON:068:1,2013-12-17T10:18:00Z,27.2970,-97.4049,4.178,1111122 
TCOON,ioos:station:TCOON:068:1,2013-12-17T10:48:00Z,27.2970,-97.4049,4.168,1111122 
TCOON,ioos:station:TCOON:068:1,2013-12-17T11:18:00Z,27.2970,-97.4049,4.169,1111122 
TCOON,ioos:station:TCOON:068:1,2013-12-17T11:48:00Z,27.2970,-97.4049,4.178,1111122 
TCOON,ioos:station:TCOON:068:1,2013-12-17T12:18:00Z,27.2970,-97.4049,4.17,1111122 
TCOON,ioos:station:TCOON:068:1,2013-12-17T12:48:00Z,27.2970,-97.4049,4.163,1111122 
TCOON,ioos:station:TCOON:068:1,2013-12-17T13:18:00Z,27.2970,-97.4049,4.162,1111122 
TCOON,ioos:station:TCOON:068:1,2013-12-17T13:48:00Z,27.2970,-97.4049,4.166,1111122 
TCOON,ioos:station:TCOON:068:1,2013-12-17T14:18:00Z,27.2970,-97.4049,4.162,1111122 
TCOON,ioos:station:TCOON:068:1,2013-12-17T14:48:00Z,27.2970,-97.4049,4.189,1111122 
TCOON,ioos:station:TCOON:068:1,2013-12-17T15:18:00Z,27.2970,-97.4049,4.171,1111122 
TCOON,ioos:station:TCOON:068:1,2013-12-17T15:48:00Z,27.2970,-97.4049,4.171,1111122 
TCOON,ioos:station:TCOON:068:1,2013-12-17T16:24:00Z,27.2970,-97.4049,4.174,1111122 
TCOON,ioos:station:TCOON:068:1,2013-12-17T16:48:00Z,27.2970,-97.4049,4.169,1111122 
TCOON,ioos:station:TCOON:068:1,2013-12-17T17:18:00Z,27.2970,-97.4049,4.167,1111122 
TCOON,ioos:station:TCOON:068:1,2013-12-17T17:48:00Z,27.2970,-97.4049,4.164,1111122 
TCOON,ioos:station:TCOON:068:1,2013-12-17T18:18:00Z,27.2970,-97.4049,4.164,1111122 
TCOON,ioos:station:TCOON:068:1,2013-12-17T18:48:00Z,27.2970,-97.4049,4.164,1111122 
TCOON,ioos:station:TCOON:068:1,2013-12-17T19:24:00Z,27.2970,-97.4049,4.162,1111122 
TCOON,ioos:station:TCOON:068:1,2013-12-17T19:48:00Z,27.2970,-97.4049,4.159,1111122 
TCOON,ioos:station:TCOON:068:1,2013-12-17T20:24:00Z,27.2970,-97.4049,4.153,1111122 
TCOON,ioos:station:TCOON:068:1,2013-12-17T20:54:00Z,27.2970,-97.4049,4.143,1111122 
TCOON,ioos:station:TCOON:068:1,2013-12-17T21:48:00Z,27.2970,-97.4049,4.14,1111122 
TCOON,ioos:station:TCOON:068:1,2013-12-17T22:24:00Z,27.2970,-97.4049,4.139,1111122 
TCOON,ioos:station:TCOON:068:1,2013-12-17T23:24:00Z,27.2970,-97.4049,4.141,1111122 
TCOON,ioos:station:TCOON:068:1,2013-12-18T00:18:00Z,27.2970,-97.4049,4.145,1111122 
TCOON,ioos:station:TCOON:068:1,2013-12-18T00:48:00Z,27.2970,-97.4049,4.147,1111122 
TCOON,ioos:station:TCOON:068:1,2013-12-18T01:18:00Z,27.2970,-97.4049,4.149,1111122 
TCOON,ioos:station:TCOON:068:1,2013-12-18T01:48:00Z,27.2970,-97.4049,4.167,1111122 
TCOON,ioos:station:TCOON:068:1,2013-12-18T02:18:00Z,27.2970,-97.4049,4.151,1111122 
TCOON,ioos:station:TCOON:068:1,2013-12-18T02:48:00Z,27.2970,-97.4049,4.152,1111122 
TCOON,ioos:station:TCOON:068:1,2013-12-18T03:18:00Z,27.2970,-97.4049,4.151,1111122 
TCOON,ioos:station:TCOON:068:1,2013-12-18T03:48:00Z,27.2970,-97.4049,4.15,1111122 
TCOON,ioos:station:TCOON:068:1,2013-12-18T04:18:00Z,27.2970,-97.4049,4.16,1111122 
TCOON,ioos:station:TCOON:068:1,2013-12-18T04:48:00Z,27.2970,-97.4049,4.147,1111122 
TCOON,ioos:station:TCOON:068:1,2013-12-18T05:48:00Z,27.2970,-97.4049,4.143,1111122 
TCOON,ioos:station:TCOON:068:1,2013-12-18T06:18:00Z,27.2970,-97.4049,4.142,1111122 
TCOON,ioos:station:TCOON:068:1,2013-12-18T06:48:00Z,27.2970,-97.4049,4.141,1111122 
TCOON,ioos:station:TCOON:068:1,2013-12-18T07:18:00Z,27.2970,-97.4049,4.14,1111122 
TCOON,ioos:station:TCOON:068:1,2013-12-18T07:48:00Z,27.2970,-97.4049,4.139,1111122 
TCOON,ioos:station:TCOON:068:1,2013-12-18T08:18:00Z,27.2970,-97.4049,4.138,1111122 
TCOON,ioos:station:TCOON:068:1,2013-12-18T08:48:00Z,27.2970,-97.4049,4.137,1111122 
TCOON,ioos:station:TCOON:068:1,2013-12-18T09:18:00Z,27.2970,-97.4049,4.137,1111122 
TCOON,ioos:station:TCOON:068:1,2013-12-18T09:48:00Z,27.2970,-97.4049,4.136,1111122 
TCOON,ioos:station:TCOON:068:1,2013-12-18T10:18:00Z,27.2970,-97.4049,4.137,1111122 
TCOON,ioos:station:TCOON:068:1,2013-12-18T10:48:00Z,27.2970,-97.4049,4.137,1111122 
TCOON,ioos:station:TCOON:068:1,2013-12-18T11:18:00Z,27.2970,-97.4049,4.137,1111122 
TCOON,ioos:station:TCOON:068:1,2013-12-18T11:48:00Z,27.2970,-97.4049,4.137,1111122 
TCOON,ioos:station:TCOON:068:1,2013-12-18T12:18:00Z,27.2970,-97.4049,4.138,1111122 
TCOON,ioos:station:TCOON:068:1,2013-12-18T12:48:00Z,27.2970,-97.4049,4.139,1111122 
TCOON,ioos:station:TCOON:068:1,2013-12-18T13:18:00Z,27.2970,-97.4049,4.139,1111122 